{"data":{"norad_id":64792,"intl_designator":"2025-150C","name":"STARLINK-34632","alt_names":[],"object_type":"PAYLOAD","status":"ACTIVE","operator":null,"country":"US","launch_date":"2025-07-16","launch_site_code":"AFWTR","launch_vehicle":null,"mission":null,"orbit_class":"UNKNOWN","rcs_meters":null,"size_class":null,"mass_kg":null,"dimensions":null,"purposes":["comms"],"wikipedia_slug":null,"has_3d_model":false,"image_url":null,"decayed_at":null,"tle_current":{"epoch":"2026-09-20T13:13:47.060832Z","epoch_age_seconds":123168,"freshness":"FRESH","line1":"1 64792U 25150C   26263.55123913  .00002596  00000+0  22522-3 0  9996","line2":"2 64792  70.0021   3.0831 0003290 268.3915  91.6868 14.98336323 65701","mean_motion":14.98336323,"eccentricity":0.000329,"inclination_deg":70.0021,"raan_deg":3.0831,"arg_perigee_deg":268.3915,"mean_anomaly_deg":91.6868,"bstar":0.00022522,"rev_number":6570,"period_min":96.106593552828,"perigee_km":569.74973062918,"apogee_km":574.32294468535,"semimajor_km":6950.1733376573,"source":"CELESTRAK","updated_at":"2026-09-21T09:00:35.442629Z"}}}